Weather in Panikovets

Russia / Bryansk Oblast     53°10′11″N   34°02′33″E
temp.,
°C
wind,
m/s
gust,
m/s
humid.,
%
clouds,
%
prec.,
mm/h
press.,
hPa
HPBL,
m
6 may, thu
thu600:00+10s61389100 0.0 1007303
03:00+9s61590100 0.1 1006458
06:00+9s81687100 0.2 1005738
09:00+10s9167775 0.4 1004875
12:00+14ssw101671100 0.2 10031657
15:00+8wsw6108699 2.0 1007882
18:00+10wsw597582 0.3 10081168
21:00+7wsw3984100 0.3 1010194
7 may, fri
fri700:00+5wsw3588100 0.0 101273
03:00+4wsw36865 0.0 101299
06:00+3sw36815 0.0 101395
09:00+10ssw610595 0.0 1013649
12:00+14ssw710485 0.0 10131966
15:00+13ssw6956100 0.0 10121803
18:00+13s71160100 0.0 10101291
21:00+12s71459100 0.0 10091353
8 may, sat
sat800:00+11s81569100 0.2 10071113
03:00+9s71493100 3.9 1005938
06:00+9s51096100 2.8 1004529
09:00+9ssw4697100 3.5 1004341
12:00+11wsw91079100 0.8 10041136
15:00+8wsw91274100 0.9 10061349
18:00+5wnw8168148 0.2 10091139
21:00+4w513845 0.2 1011602
9 may, sun
sun900:00+4w613821 0.0 1013529
03:00+3w512915 0.0 1015348
06:00+2w4109624 0.0 1017394
09:00+7nw710675 0.0 10191067
12:00+10nw795075 0.0 10212049
15:00+12nw794399 0.0 10222561
18:00+11nw575327 0.0 10241064
21:00+6nw34685 0.0 102651
10 may, mon
mon1000:00+4nnw33711 0.0 102823
03:00+4n22735 0.0 102911
06:00+4ne227470 0.0 103113
09:00+10e22585 0.0 1031407
12:00+14ne22425 0.0 10311334
15:00+15ne23380 0.0 10301534
18:00+15ene24480 0.0 1029624
21:00+9e33690 0.0 103034